TimeEEST,TemperatureF,Dew PointF,Humidity,Sea Level PressureIn,VisibilityMPH,Wind Direction,Wind SpeedMPH,Gust SpeedMPH,PrecipitationIn,Events,Conditions,WindDirDegrees,DateUTC
12:20 AM,62.6,50.0,63,29.98,-9999.0,North,10.4,-,N/A,,Clear,360,2012-10-13 21:20:00
12:50 AM,64.4,50.0,59,29.98,-9999.0,North,10.4,-,N/A,,Clear,360,2012-10-13 21:50:00
1:20 AM,62.6,50.0,63,29.98,-9999.0,North,11.5,-,N/A,,Clear,360,2012-10-13 22:20:00
1:50 AM,60.8,50.0,68,29.98,-9999.0,North,9.2,-,N/A,,Clear,360,2012-10-13 22:50:00
2:20 AM,62.6,50.0,63,29.98,-9999.0,North,6.9,-,N/A,,Clear,350,2012-10-13 23:20:00
2:50 AM,60.8,51.8,72,29.98,-9999.0,North,9.2,-,N/A,,Clear,360,2012-10-13 23:50:00
3:00 AM,62,51,58,29.96,6,North,9.2,,,,,0,2012-10-14 00:00:00
3:20 AM,62.6,50.0,63,29.95,-9999.0,North,9.2,-,N/A,,Clear,360,2012-10-14 00:20:00
3:50 AM,60.8,50.0,68,29.95,-9999.0,North,8.1,-,N/A,,Clear,10,2012-10-14 00:50:00
4:20 AM,62.6,51.8,68,29.95,-9999.0,North,6.9,-,N/A,,Clear,350,2012-10-14 01:20:00
4:50 AM,60.8,50.0,68,29.95,-9999.0,North,8.1,-,N/A,,Clear,360,2012-10-14 01:50:00
5:20 AM,60.8,50.0,68,29.95,-9999.0,North,8.1,-,N/A,,Clear,350,2012-10-14 02:20:00
5:50 AM,60.8,50.0,68,29.95,-9999.0,North,8.1,-,N/A,,Clear,350,2012-10-14 02:50:00
6:20 AM,60.8,50.0,68,29.95,-9999.0,North,5.8,-,N/A,,Clear,360,2012-10-14 03:20:00
6:50 AM,60.8,51.8,72,29.98,-9999.0,North,3.5,-,N/A,,Clear,10,2012-10-14 03:50:00
7:20 AM,60.8,53.6,77,29.98,-9999.0,North,3.5,-,N/A,,Clear,350,2012-10-14 04:20:00
7:50 AM,62.6,55.4,77,29.98,-9999.0,North,3.5,-,N/A,,Clear,350,2012-10-14 04:50:00
8:20 AM,66.2,55.4,68,29.98,-9999.0,North,3.5,-,N/A,,Clear,360,2012-10-14 05:20:00
8:50 AM,71.6,55.4,57,29.98,-9999.0,NW,3.5,-,N/A,,Clear,310,2012-10-14 05:50:00
9:00 AM,71,56,48,29.96,6,NW,3.5,,,,Clear,310,2012-10-14 06:00:00
9:20 AM,71.6,51.8,50,29.98,-9999.0,North,-9999.0,-,N/A,,Clear,0,2012-10-14 06:20:00
9:50 AM,77.0,51.8,41,29.98,-9999.0,North,-9999.0,-,N/A,,Clear,0,2012-10-14 06:50:00
10:20 AM,80.6,50.0,34,29.98,-9999.0,North,-9999.0,-,N/A,,Clear,0,2012-10-14 07:20:00
10:50 AM,80.6,48.2,32,29.98,-9999.0,North,-9999.0,-,N/A,,Clear,0,2012-10-14 07:50:00
11:20 AM,82.4,48.2,30,29.98,-9999.0,North,-9999.0,-,N/A,,Clear,0,2012-10-14 08:20:00
11:50 AM,84.2,50.0,30,29.98,-9999.0,North,-9999.0,-,N/A,,Clear,0,2012-10-14 08:50:00
12:20 PM,86.0,48.2,27,29.98,-9999.0,North,-9999.0,-,N/A,,Clear,0,2012-10-14 09:20:00
12:50 PM,86.0,46.4,25,29.95,-9999.0,North,-9999.0,-,N/A,,Clear,0,2012-10-14 09:50:00
1:20 PM,87.8,46.4,24,29.92,-9999.0,North,-9999.0,-,N/A,,Clear,0,2012-10-14 10:20:00
1:50 PM,87.8,46.4,24,29.95,-9999.0,North,-9999.0,-,N/A,,Clear,0,2012-10-14 10:50:00
2:20 PM,87.8,46.4,24,29.92,-9999.0,North,-9999.0,-,N/A,,Clear,0,2012-10-14 11:20:00
2:50 PM,87.8,46.4,24,29.92,-9999.0,ESE,2.3,-,N/A,,Clear,120,2012-10-14 11:50:00
3:00 PM,88,46,14,29.93,6,ESE,2.3,,,,Clear,120,2012-10-14 12:00:00
3:20 PM,87.8,46.4,24,29.92,-9999.0,NE,3.5,-,N/A,,Clear,50,2012-10-14 12:20:00
3:50 PM,87.8,46.4,24,29.92,-9999.0,North,2.3,-,N/A,,Clear,360,2012-10-14 12:50:00
4:20 PM,87.8,46.4,24,29.92,-9999.0,SW,2.3,-,N/A,,Clear,230,2012-10-14 13:20:00
4:50 PM,87.8,44.6,22,29.92,-9999.0,SW,2.3,-,N/A,,Clear,230,2012-10-14 13:50:00
5:20 PM,86.0,48.2,27,29.92,-9999.0,North,-9999.0,-,N/A,,Clear,0,2012-10-14 14:20:00
5:50 PM,82.4,57.2,42,29.92,-9999.0,North,-9999.0,-,N/A,,Clear,0,2012-10-14 14:50:00
6:20 PM,78.8,57.2,47,29.92,-9999.0,North,-9999.0,-,N/A,,Clear,0,2012-10-14 15:20:00
6:50 PM,75.2,59.0,57,29.95,-9999.0,North,-9999.0,-,N/A,,Clear,0,2012-10-14 15:50:00
7:20 PM,75.2,57.2,53,29.95,-9999.0,North,-9999.0,-,N/A,,Clear,0,2012-10-14 16:20:00
7:50 PM,73.4,59.0,61,29.95,-9999.0,North,-9999.0,-,N/A,,Clear,0,2012-10-14 16:50:00
8:20 PM,71.6,59.0,64,29.95,-9999.0,North,-9999.0,-,N/A,,Clear,0,2012-10-14 17:20:00
8:50 PM,71.6,59.0,64,29.95,-9999.0,North,-9999.0,-,N/A,,Clear,0,2012-10-14 17:50:00
9:00 PM,71,59,57,29.96,6,Calm,Calm,,,,Clear,,2012-10-14 18:00:00
9:20 PM,69.8,59.0,68,29.95,-9999.0,North,-9999.0,-,N/A,,Clear,0,2012-10-14 18:20:00
9:50 PM,69.8,59.0,68,29.98,-9999.0,North,-9999.0,-,N/A,,Clear,0,2012-10-14 18:50:00
10:20 PM,68.0,60.8,78,29.98,-9999.0,North,-9999.0,-,N/A,,Clear,0,2012-10-14 19:20:00
10:50 PM,66.2,60.8,83,29.98,-9999.0,North,-9999.0,-,N/A,,Clear,0,2012-10-14 19:50:00
11:50 PM,66.2,59.0,78,29.98,-9999.0,North,-9999.0,-,N/A,,Clear,0,2012-10-14 20:50:00